[[{"header":{"parameterUnit":"m.s-1","parameterCategory":1,"la1":30.2991,"la2":30.254,"lo1":-89.0895,"lo2":-89.0444,"dy":0.0017,"dx":0.0017,"nx":28,"ny":28,"refTime":"2023-07-31T03:00:00:Z","depth":0,"parameterNumber":2,"parameterNumberName":"U-component_of_WINDS"},"data":[0,0,0,0,0,0,0,0,0,0,0,0,0,0,0,0,0,0,0,0,0,0,0,0,0,0,0,0,0,0,0,0,0,0,0,0,0,0,0,0,0,0,0,0,0,0,0,0,0,0,0,0,0,0,0,0,0,0,-0.5872,-0.587,0,-0.5667,-0.5664,-0.5662,-0.5579,-0.5579,-0.558,-0.558,-0.5364,-0.5358,-0.5352,0,0,0,0,0,0,0,0,0,0,0,0,0,-0.6187,-0.6182,-0.5872,-0.587,-0.5867,-0.5667,-0.5664,-0.5661,-0.5579,-0.5579,-0.558,-0.558,-0.5366,-0.5359,-0.5351,0,0,0,0,0,0,0,0,0,0,0,0,0,-0.6023,-0.618,-0.5873,-0.5802,-0.5793,-0.5668,-0.5664,-0.5661,-0.5578,-0.5579,-0.558,-0.5581,-0.5369,-0.5359,-0.535,-0.5278,0,0,-0.5322,-0.5318,0,0,0,0,0,0,0,0,-0.6032,-0.6011,-0.5815,-0.5806,-0.5797,-0.5649,-0.5696,-0.5532,-0.5578,-0.566,-0.558,-0.5581,-0.5458,-0.5441,-0.5401,-0.5268,-0.5259,-0.5321,-0.5315,-0.5311,-0.5309,0,0,0,0,0,0,0,-0.6044,-0.602,-0.5791,-0.5812,-0.5801,-0.5778,-0.5756,-0.5665,-0.5557,-0.5653,-0.5646,-0.5623,-0.5453,-0.541,-0.5395,-0.5256,-0.5321,-0.5313,-0.5307,-0.5304,-0.5053,-0.5052,0,0,0,0,0,0,-0.6068,-0.603,-0.5797,-0.5785,-0.5919,-0.5772,-0.5747,-0.5696,-0.5558,-0.5538,-0.5623,-0.562,-0.5426,-0.5406,-0.5387,-0.5294,-0.5311,-0.5303,-0.5297,-0.5054,-0.5053,-0.5052,0,0,0,0,0,0,-0.6075,-0.6048,-0.5805,-0.5905,-0.5873,-0.5766,-0.5709,-0.5691,-0.5648,-0.5535,-0.5515,-0.5599,-0.5426,-0.5401,-0.5306,-0.5286,-0.5299,-0.529,-0.5056,-0.5054,-0.5052,-0.5107,0,0,0,0,0,0,-0.6084,-0.6051,-0.6024,-0.5905,-0.5868,-0.573,-0.5708,-0.5687,-0.5633,-0.5628,-0.5508,-0.5489,-0.5424,-0.5321,-0.5297,-0.5273,-0.5283,-0.5057,-0.5055,-0.5053,-0.5107,-0.5108,-0.5109,0,0,0,0,0,-0.6096,-0.6046,-0.6023,-0.5995,-0.5832,-0.5729,-0.5707,-0.5636,-0.5632,-0.5603,-0.553,-0.5492,-0.5292,-0.5312,-0.5285,-0.5257,-0.5058,-0.5055,-0.5053,-0.5107,-0.5108,-0.5109,0,0,0,0,0,0,-0.6162,-0.6029,-0.6002,-0.5913,-0.5833,-0.5715,-0.5676,-0.5639,-0.5557,-0.5555,-0.5468,-0.5442,-0.5355,-0.5296,-0.5321,-0.518,-0.5172,-0.5164,-0.5222,-0.5222,-0.5223,-0.5239,-0.5275,0,0,0,0,0,-0.6167,-0.6096,-0.5983,-0.5915,-0.5877,-0.5784,-0.5736,-0.5688,-0.5601,-0.5566,-0.5487,-0.5402,-0.532,-0.5268,-0.5186,-0.5098,-0.507,-0.5066,-0.5067,-0.5068,-0.5062,-0.5011,-0.5008,-0.5044,-0.5044,-0.5044,0,0,-0.6175,-0.6094,-0.6054,-0.5926,-0.5859,-0.5786,-0.5756,-0.568,-0.5624,-0.5554,-0.5461,-0.54,-0.53,-0.5209,-0.5165,-0.5157,-0.5046,-0.5065,-0.5067,-0.506,-0.5008,-0.5005,-0.5002,-0.5042,-0.5043,-0.5043,0,0,-0.6153,-0.6085,-0.6021,-0.5955,-0.5854,-0.5792,-0.5777,-0.5664,-0.5622,-0.5528,-0.5474,-0.5405,-0.5266,-0.5197,-0.5143,-0.5096,-0.5058,-0.5072,-0.5076,-0.5027,-0.5025,-0.5022,-0.5005,-0.5,-0.5066,-0.5066,-0.5066,0,-0.6176,-0.6065,-0.5992,-0.592,-0.5865,-0.58,-0.5734,-0.5672,-0.5549,-0.5512,-0.5506,-0.533,-0.5258,-0.515,-0.5139,-0.5098,-0.5077,-0.5085,-0.5031,-0.5027,-0.5024,-0.5006,-0.5,-0.5068,-0.5068,-0.5068,-0.5068,0,-0.6098,-0.6022,-0.5983,-0.5868,-0.5808,-0.574,-0.5655,-0.5603,-0.556,-0.5499,-0.5404,-0.5315,-0.5214,-0.5185,-0.5141,-0.5071,-0.5069,-0.5049,-0.5038,-0.5024,-0.5006,-0.4999,-0.5072,-0.5071,-0.507,-0.507,0,0,-0.6112,-0.5958,-0.5945,-0.5892,-0.5776,-0.5716,-0.5643,-0.5547,-0.5504,-0.5421,-0.5358,-0.5241,-0.5222,-0.5161,-0.5109,-0.5067,-0.5035,-0.5051,-0.5047,-0.5051,-0.4951,-0.4968,-0.4962,-0.5009,-0.5008,-0.5007,-0.496,0,-0.6074,-0.5944,-0.5877,-0.5775,-0.5704,-0.5641,-0.5578,-0.5499,-0.544,-0.537,-0.5303,-0.5223,-0.5203,-0.5166,-0.5121,-0.5049,-0.5014,-0.5051,-0.4948,-0.4946,-0.4976,-0.4953,-0.497,-0.493,-0.4953,-0.4951,-0.495,0,-0.6013,-0.5933,-0.5825,-0.5718,-0.5686,-0.5631,-0.5537,-0.5471,-0.538,-0.534,-0.5273,-0.5223,-0.5142,-0.5139,-0.5027,-0.5053,-0.5007,-0.4965,-0.4962,-0.4949,-0.4947,-0.4939,-0.4915,-0.491,-0.4939,-0.494,-0.4941,0,-0.6034,-0.59,-0.5818,-0.5774,-0.5647,-0.561,-0.5555,-0.5465,-0.5411,-0.5329,-0.5293,-0.5201,-0.5151,-0.5081,-0.5006,-0.501,-0.4901,-0.4891,-0.4865,-0.4867,-0.4844,-0.4847,-0.4813,-0.4815,-0.4815,-0.4815,-0.4815,0,-0.5999,-0.5936,-0.5826,-0.5775,-0.5702,-0.5624,-0.5552,-0.5492,-0.5413,-0.5348,-0.5288,-0.5229,-0.5134,-0.5062,-0.5003,-0.4919,-0.4897,-0.4861,-0.4846,-0.4866,-0.4871,-0.4835,-0.4835,-0.4814,-0.4814,-0.4814,-0.4815,0,-0.601,-0.5934,-0.5841,-0.5729,-0.5699,-0.565,-0.5553,-0.5501,-0.544,-0.5359,-0.5335,-0.5238,-0.515,-0.5069,-0.4952,-0.4912,-0.4827,-0.4808,-0.4859,-0.4851,-0.4829,-0.4832,-0.477,-0.4758,-0.4769,-0.4769,-0.4769,0,-0.5993,-0.5943,-0.5827,-0.578,-0.5727,-0.5653,-0.5599,-0.552,-0.5465,-0.5358,-0.5319,-0.5228,-0.515,-0.5013,-0.493,-0.484,-0.4818,-0.4803,-0.4804,-0.4826,-0.4818,-0.4822,-0.4816,-0.4804,-0.4804,-0.4805,-0.4805,0,-0.5971,-0.5936,-0.5861,-0.5773,-0.5711,-0.5637,-0.5561,-0.5526,-0.5432,-0.5374,-0.5285,-0.5225,-0.5107,-0.5016,-0.4917,-0.4858,-0.4815,-0.4805,-0.4794,-0.4814,-0.4846,-0.4829,-0.4862,-0.4807,-0.4807,-0.4806,-0.4806,-0.4806,-0.5967,-0.592,-0.5831,-0.5749,-0.5685,-0.5615,-0.5561,-0.5494,-0.5419,-0.5318,-0.5275,-0.5185,-0.5094,-0.4957,-0.4899,-0.4826,-0.4817,-0.4801,-0.4797,-0.4794,-0.4798,-0.4859,-0.4807,-0.4807,-0.4807,-0.4807,-0.4807,0,-0.5942,-0.5882,-0.5808,-0.5705,-0.564,-0.5608,-0.5523,-0.547,-0.5393,-0.5313,-0.5239,-0.5136,-0.5049,-0.496,-0.4867,-0.4826,-0.4804,-0.4804,-0.4806,-0.4793,-0.4812,-0.4831,-0.4823,-0.4823,-0.4823,-0.4823,-0.4823,-0.4823,-0.5921,-0.5839,-0.5794,-0.568,-0.5619,-0.5532,-0.5486,-0.5421,-0.5358,-0.5247,-0.5175,-0.5118,-0.5034,-0.4935,-0.4852,-0.4828,-0.4797,-0.4802,-0.4773,-0.4792,-0.4791,-0.4791,-0.4808,-0.4796,-0.4796,-0.476,-0.476,-0.4759]},{"header":{"parameterUnit":"m.s-1","parameterCategory":1,"la1":30.2991,"la2":30.254,"lo1":-89.0895,"lo2":-89.0444,"dy":0.0017,"dx":0.0017,"nx":28,"ny":28,"refTime":"2023-07-31T03:00:00:Z","depth":0,"parameterNumber":3,"parameterNumberName":"V-component_of_WINDS"},"data":[0,0,0,0,0,0,0,0,0,0,0,0,0,0,0,0,0,0,0,0,0,0,0,0,0,0,0,0,0,0,0,0,0,0,0,0,0,0,0,0,0,0,0,0,0,0,0,0,0,0,0,0,0,0,0,0,0,0,2.0191,2.019,0,2.0135,2.0134,2.0133,2.0039,2.0038,2.0036,2.0034,1.9977,1.9977,1.9977,0,0,0,0,0,0,0,0,0,0,0,0,0,2.0215,2.0215,2.0191,2.019,2.0189,2.0135,2.0134,2.0133,2.004,2.0038,2.0035,2.0033,1.9977,1.9977,1.9977,0,0,0,0,0,0,0,0,0,0,0,0,0,2.0186,2.0215,2.0191,2.0136,2.0131,2.0135,2.0134,2.0133,2.004,2.0038,2.0035,2.0032,1.9977,1.9977,1.9977,2.003,0,0,1.9977,1.9977,0,0,0,0,0,0,0,0,2.0188,2.0185,2.0145,2.014,2.0134,2.0091,2.0121,2.0098,2.0041,2.0074,2.0034,2.0031,2.0017,2.0014,2.0009,2.0027,2.0025,1.9977,1.9977,1.9977,1.9977,0,0,0,0,0,0,0,2.019,2.0187,2.0168,2.0144,2.0137,2.0114,2.0107,2.0117,2.0061,2.0071,2.0064,2.0059,2.0013,2.0009,2.0007,2.0024,1.9977,1.9977,1.9978,1.9978,2.0079,2.0081,0,0,0,0,0,0,2.02,2.019,2.017,2.0167,2.0155,2.0115,2.0108,2.0108,2.0061,2.0051,2.0061,2.0055,2.001,2.0007,2.0004,2.0059,1.9977,1.9978,1.9978,2.0076,2.0079,2.0082,0,0,0,0,0,0,2.0201,2.0199,2.0172,2.0176,2.0171,2.0118,2.0118,2.0108,2.0103,2.0053,2.0043,2.0067,2.0008,2.0004,2.0023,2.0056,1.9978,1.9978,2.0073,2.0077,2.0081,2.0172,0,0,0,0,0,0,2.0202,2.02,2.022,2.0177,2.0171,2.0193,2.0121,2.0109,2.0104,2.0095,2.0056,2.0047,2.0005,2.0024,2.0023,2.0055,1.9978,2.007,2.0075,2.0079,2.0166,2.0178,2.0189,0,0,0,0,0,2.0203,2.0249,2.0222,2.022,2.0195,2.0195,2.0191,2.0143,2.0107,2.0125,2.0093,2.0048,2.0054,2.0026,2.0025,2.0057,2.0067,2.0073,2.0079,2.016,2.0176,2.0189,0,0,0,0,0,0,2.0298,2.0243,2.0212,2.0245,2.0225,2.0179,2.0201,2.0162,2.0152,2.0144,2.0085,2.0077,2.0103,2.0083,2.0053,2.0104,2.0053,2.0059,2.0115,2.013,2.0141,2.0144,1.9978,0,0,0,0,0,2.0323,2.0327,2.0279,2.0313,2.0305,2.0256,2.0254,2.0218,2.0195,2.0187,2.0156,2.0135,2.0131,2.013,2.0125,2.0164,2.0152,2.0185,2.0197,2.0207,2.0211,2.0226,2.0239,2.0101,2.0101,2.0101,0,0,2.0373,2.0344,2.0351,2.0331,2.0312,2.0317,2.0249,2.0258,2.026,2.0188,2.0202,2.018,2.0152,2.018,2.0191,2.0164,2.0247,2.0215,2.0223,2.0222,2.0233,2.0246,2.0258,2.0105,2.0104,2.0104,0,0,2.0467,2.0448,2.0471,2.0453,2.0424,2.0391,2.0397,2.0357,2.0338,2.0352,2.0296,2.0299,2.0296,2.0277,2.0267,2.0354,2.031,2.0354,2.0414,2.0429,2.044,2.0449,2.0475,2.0486,2.036,2.036,2.036,0,2.0533,2.0539,2.0489,2.05,2.0491,2.0427,2.0449,2.0434,2.0405,2.04,2.0371,2.0363,2.0341,2.0361,2.0382,2.0378,2.0381,2.0356,2.0443,2.0451,2.0459,2.0483,2.0493,2.0365,2.0364,2.0364,2.0363,0,2.0619,2.0624,2.0647,2.0619,2.0614,2.0632,2.0583,2.0584,2.0549,2.0519,2.0532,2.0503,2.0488,2.0492,2.0459,2.0507,2.049,2.0454,2.04,2.0478,2.0499,2.0508,2.0372,2.037,2.0369,2.0368,0,0,2.0768,2.0712,2.0721,2.0706,2.0669,2.0672,2.0686,2.0671,2.0671,2.0654,2.0661,2.066,2.0624,2.0613,2.0578,2.0592,2.0655,2.0552,2.055,2.0567,2.0701,2.0726,2.0738,2.0628,2.063,2.0631,2.0702,0,2.085,2.0869,2.0824,2.0854,2.0855,2.0794,2.0805,2.0784,2.0756,2.0752,2.0722,2.0719,2.0675,2.0667,2.0679,2.0645,2.0681,2.0641,2.0631,2.0632,2.0635,2.0749,2.0776,2.0844,2.071,2.0712,2.0713,0,2.0947,2.0933,2.0963,2.0922,2.0921,2.0933,2.0914,2.0913,2.0886,2.0865,2.0852,2.0811,2.0819,2.0772,2.0781,2.0754,2.0749,2.0732,2.0733,2.0726,2.0673,2.0741,2.0865,2.0873,2.0726,2.0725,2.0724,0,2.1046,2.1036,2.1051,2.1041,2.0995,2.1004,2.0985,2.0956,2.0949,2.0934,2.0928,2.0915,2.0906,2.0896,2.085,2.0821,2.0863,2.0813,2.0843,2.0844,2.085,2.085,2.097,2.0856,2.0856,2.0855,2.0855,0,2.1139,2.1158,2.1094,2.1103,2.1122,2.1071,2.1091,2.1066,2.1041,2.1042,2.0991,2.0993,2.0936,2.0932,2.0897,2.0907,2.0905,2.0886,2.0875,2.0887,2.0889,2.0879,2.0871,2.0858,2.0857,2.0857,2.0856,0,2.125,2.1209,2.122,2.1176,2.1166,2.1181,2.1142,2.1148,2.1118,2.112,2.1118,2.1069,2.1061,2.1017,2.0999,2.0976,2.0996,2.0979,2.1005,2.0997,2.1027,2.1023,2.1141,2.1152,2.1036,2.1037,2.1038,0,2.131,2.1323,2.128,2.1277,2.1261,2.1258,2.125,2.1201,2.1195,2.1165,2.1173,2.1162,2.1149,2.1139,2.1101,2.1087,2.1065,2.1108,2.1063,2.1073,2.106,2.1058,2.1057,2.1116,2.1118,2.1119,2.112,0,2.1418,2.1397,2.1388,2.1372,2.1364,2.135,2.1331,2.1332,2.1277,2.1273,2.1264,2.1254,2.1235,2.1223,2.1202,2.1181,2.114,2.1135,2.114,2.115,2.1162,2.1151,2.1026,2.1131,2.113,2.1129,2.1129,2.1128,2.1501,2.1509,2.1479,2.147,2.1452,2.1436,2.1437,2.1407,2.1399,2.1379,2.1351,2.1345,2.1316,2.1283,2.1266,2.126,2.1237,2.1245,2.1247,2.1248,2.1252,2.1168,2.1256,2.1256,2.1256,2.1255,2.1255,0,2.1602,2.158,2.1573,2.1549,2.1542,2.1506,2.1484,2.1479,2.1475,2.1452,2.1441,2.1429,2.1416,2.1378,2.1361,2.1363,2.1343,2.136,2.1356,2.1351,2.1277,2.1271,2.1375,2.1375,2.1375,2.1375,2.1375,2.1375,2.1654,2.1663,2.1638,2.1637,2.1614,2.1608,2.1598,2.1582,2.1563,2.1552,2.1541,2.1517,2.1486,2.1467,2.1453,2.1441,2.1435,2.1457,2.1439,2.1369,2.1357,2.1346,2.1341,2.1457,2.1458,2.1514,2.1514,2.1515]}]]